FW5216 Weather Reports


Display with metric or nautical units.
time (UTC)temp
F
wind
direction
speed
MPH
gust
MPH
rain 1hr
in
rain 24hr
in
rain mn
in
humidity
%
barometer
mb
20260506191607 44 257 0.0 0.0 0.01 0.50 0.46 96 1009.3
20260506190055 44 154 0.0 0.0 0.01 0.50 0.46 96 1009.3
20260506184554 43 264 0.0 0.0 0.01 0.51 0.46 96 1009.5
20260506183056 43 262 0.0 0.0 0.01 0.50 0.45 96 1009.7
20260506181559 43 280 0.0 0.0 0.01 0.50 0.45 96 1009.9
20260506180112 43 257 0.0 0.0 0.02 0.50 0.45 96 1010.0
20260506174551 43 243 0.0 0.0 0.04 0.50 0.45 96 1010.2
20260506173116 43 1 0.0 0.0 0.04 0.49 0.44 95 1010.3
20260506171549 43 332 0.0 0.0 0.06 0.49 0.44 95 1010.4
20260506170047 43 265 0.0 0.0 0.08 0.48 0.43 95 1010.2
20260506164546 43 354 0.0 0.0 0.08 0.46 0.41 95 1010.5
20260506163047 43 315 0.0 0.0 0.09 0.45 0.40 95 1010.6
20260506161553 42 279 0.0 1.0 0.09 0.42 0.37 95 1010.7
20260506160045 42 285 0.0 0.0 0.09 0.40 0.35 94 1010.9
20260506154544 42 340 0.0 0.0 0.08 0.37 0.32 94 1010.9
20260506153042 42 304 0.0 0.0 0.08 0.36 0.31 94 1011.1
20260506151545 42 288 0.0 0.0 0.06 0.33 0.28 94 1011.2
20260506150040 42 280 0.0 0.0 0.05 0.31 0.26 94 1010.9
20260506144551 43 300 0.0 0.0 0.05 0.28 0.24 94 1010.6
20260506143037 43 312 0.0 0.0 0.05 0.28 0.23 94 1010.7
20260506141537 43 293 0.0 0.0 0.04 0.27 0.22 94 1010.9
20260506140035 43 297 0.0 0.0 0.04 0.26 0.21 94 1011.0
20260506134532 44 302 0.0 0.0 0.03 0.24 0.19 94 1010.7
20260506133037 43 18 0.0 0.0 0.04 0.23 0.18 93 1010.5
20260506131531 44 238 0.0 0.0 0.05 0.23 0.18 94 1011.1
20260506130031 43 267 0.0 0.0 0.06 0.22 0.17 93 1011.2
20260506124528 44 253 0.0 0.0 0.06 0.21 0.16 93 1011.3
20260506123028 44 265 0.0 0.0 0.05 0.19 0.14 92 1011.2
20260506121528 44 321 0.0 0.0 0.06 0.18 0.13 92 1011.3
20260506120029 44 271 0.0 0.0 0.04 0.16 0.11 92 1012.0
20260506114521 45 356 0.0 0.0 0.03 0.15 0.10 92 1011.7
20260506113021 45 264 0.0 0.0 0.03 0.14 0.09 93 1011.6
20260506111517 46 246 0.0 0.0 0.01 0.12 0.07 93 1011.0
20260506110019 46 246 0.0 0.0 0.01 0.12 0.07 92 1010.8
20260506104515 46 246 0.0 0.0 0.01 0.12 0.07 91 1010.8
20260506103015 46 246 0.0 0.0 0.01 0.11 0.06 91 1010.8
20260506101514 46 242 0.0 0.0 0.02 0.11 0.06 91 1010.7
20260506100013 47 242 0.0 0.0 0.03 0.11 0.06 91 1010.8
20260506094510 47 242 0.0 0.0 0.03 0.11 0.06 91 1010.7
20260506093009 47 240 0.0 0.0 0.02 0.10 0.05 90 1011.0
20260506091508 48 302 0.0 0.0 0.01 0.09 0.04 88 1011.1
20260506090009 48 266 0.0 0.0 0.00 0.08 0.03 88 1011.5
20260506084506 49 320 0.0 0.0 0.00 0.08 0.03 90 1011.1
20260506083002 49 316 0.0 0.0 0.00 0.08 0.03 88 1011.0
20260506081500 49 263 0.0 0.0 0.00 0.08 0.03 87 1011.0
20260506080109 49 286 0.0 0.0 0.00 0.08 0.03 89 1010.6
20260506073106 50 83 0.0 0.0 0.00 0.08 0.03 89 1010.5
20260506071552 50 349 0.0 0.0 0.00 0.08 0.03 90 1010.4
20260506061545 51 8 0.0 0.0 0.00 0.08 0.03 92 1010.2
20260506044543 52 77 0.0 0.0 0.04 0.08 0.03 91 1010.4
20260506043034 53 91 0.0 0.0 0.04 0.07 0.02 90 1010.5
20260506041543 53 316 0.0 0.0 0.03 0.06 0.01 88 1009.7
20260506040032 55 355 0.0 0.0 0.02 0.05 0.00 82 1009.9
20260506034530 57 269 0.0 0.0 0.01 0.04 0.04 73 1009.7
20260506033020 58 303 0.0 0.0 0.00 0.03 0.03 70 1009.3
20260506031519 57 280 0.0 0.0 0.00 0.03 0.03 72 1009.4
20260506030015 59 208 0.0 0.0 0.00 0.03 0.03 69 1009.1
20260506024516 60 253 0.0 0.0 0.00 0.03 0.03 64 1009.0
20260506023017 61 252 0.0 1.0 0.00 0.03 0.03 62 1008.8
20260506021508 61 269 0.0 0.0 0.00 0.03 0.03 61 1008.9
20260506020007 62 240 0.0 8.0 0.00 0.03 0.03 62 1008.6
20260506014506 63 255 0.0 1.0 0.00 0.03 0.03 66 1008.8
20260506013003 63 261 0.0 0.0 0.00 0.03 0.03 77 1008.3
20260506011623 63 115 0.0 0.0 0.00 0.03 0.03 78 1007.5
20260506010115 64 77 0.0 0.0 0.00 0.03 0.03 76 1007.1
20260506004555 64 116 0.0 0.0 0.00 0.03 0.03 74 1006.8
20260506003056 64 178 0.0 0.0 0.00 0.03 0.03 77 1006.5
20260506001550 64 129 0.0 0.0 0.00 0.03 0.03 78 1006.1
20260506000057 65 124 0.0 0.0 0.00 0.03 0.03 74 1006.1
20260505234548 64 220 0.0 0.0 0.00 0.03 0.03 72 1005.8
20260505233048 64 157 0.0 0.0 0.00 0.03 0.03 78 1005.7
20260505231547 65 179 0.0 0.0 0.00 0.03 0.03 75 1006.1
20260505230046 66 153 0.0 0.0 0.00 0.03 0.03 72 1005.4
20260505224544 66 138 0.0 0.0 0.00 0.03 0.03 71 1005.2
20260505223044 67 91 0.0 0.0 0.00 0.03 0.03 68 1005.4
20260505221551 66 120 0.0 0.0 0.00 0.03 0.03 70 1005.8
20260505220054 67 98 0.0 0.0 0.00 0.03 0.03 66 1005.5
20260505214550 67 95 0.0 1.0 0.00 0.03 0.03 64 1005.6
20260505213040 66 97 0.0 0.0 0.00 0.03 0.03 66 1005.0
20260505211541 65 113 0.0 0.0 0.00 0.03 0.03 71 1004.6
20260505210046 63 113 0.0 0.0 0.01 0.03 0.03 72 1004.3
20260505204545 63 249 0.0 0.0 0.02 0.03 0.03 73 1004.3
20260505203037 63 200 0.0 8.0 0.02 0.03 0.03 73 1004.2
20260505201539 63 319 0.0 8.0 0.02 0.03 0.03 71 1004.5
20260505200036 66 195 0.0 20.0 0.01 0.02 0.02 69 1004.9
20260505194534 66 315 2.0 12.0 0.00 0.01 0.01 75 1004.2
20260505193041 66 65 0.0 0.0 0.00 0.01 0.01 76 1003.4